DW2819 Weather Reports


time (UTC)temp
C
wind
direction
speed
KPH
gust
KPH
rain 1hr
cm
rain 24hr
cm
rain mn
cm
humidity
%
barometer
mb
20260507070013 11 0 3.2 6.4 0.00 0.00 0.00 33 1015.6
20260507065507 11 93 3.2 8.0 0.00 0.00 0.00 33 1015.5
20260507065010 11 125 4.8 8.0 0.00 0.00 0.00 33 1015.5
20260507064508 11 124 3.2 8.0 0.00 0.00 0.00 33 1015.5
20260507064005 11 14 3.2 6.4 0.00 0.00 0.00 34 1015.6
20260507063509 10 34 3.2 6.4 0.00 0.00 0.00 34 1015.5
20260507063007 10 58 1.6 8.0 0.00 0.00 0.00 34 1015.6
20260507062508 10 58 3.2 8.0 0.00 0.00 0.00 33 1015.6
20260507062013 10 39 3.2 8.0 0.00 0.00 0.00 36 1015.6
20260507061503 9 99 3.2 8.0 0.00 0.00 0.00 36 1015.5
20260507061008 9 25 4.8 9.7 0.00 0.00 0.00 37 1015.5
20260507060504 8 32 4.8 9.7 0.00 0.00 0.00 38 1015.5
20260507055006 7 41 3.2 8.0 0.00 0.00 0.00 42 1015.5
20260507054505 7 324 3.2 8.0 0.00 0.00 0.00 43 1015.5
20260507054007 7 49 4.8 8.0 0.00 0.00 0.00 43 1015.4
20260507053508 7 73 3.2 8.0 0.00 0.00 0.00 45 1015.5
20260507053005 6 307 3.2 8.0 0.00 0.00 0.00 45 1015.5
20260507052511 6 37 1.6 4.8 0.00 0.00 0.00 46 1015.4
20260507051506 6 72 3.2 4.8 0.00 0.00 0.00 46 1015.5
20260507051007 6 93 1.6 3.2 0.00 0.00 0.00 47 1015.4
20260507050510 6 13 1.6 3.2 0.00 0.00 0.00 47 1015.5
20260507050018 6 56 1.6 4.8 0.00 0.00 0.00 47 1015.4
20260507045506 6 55 1.6 4.8 0.00 0.00 0.00 47 1015.4
20260507045006 6 0 1.6 4.8 0.00 0.00 0.00 48 1015.4
20260507044514 5 73 3.2 4.8 0.00 0.00 0.00 47 1015.3
20260507043507 5 78 1.6 3.2 0.00 0.00 0.00 49 1015.3
20260507043016 5 82 1.6 3.2 0.00 0.00 0.00 49 1015.3
20260507042510 5 103 1.6 3.2 0.00 0.00 0.00 49 1015.3
20260507042012 4 63 1.6 8.0 0.00 0.00 0.00 50 1015.4
20260507041509 4 62 3.2 8.0 0.00 0.00 0.00 53 1015.3
20260507040505 4 78 1.6 3.2 0.00 0.00 0.00 50 1015.3
20260507040014 3 92 3.2 4.8 0.00 0.00 0.00 51 1015.4
20260507035507 3 83 1.6 4.8 0.00 0.00 0.00 51 1015.4
20260507035007 3 69 1.6 4.8 0.00 0.00 0.00 52 1015.3
20260507034509 3 59 3.2 3.2 0.00 0.00 0.00 52 1015.3
20260507034008 3 34 0.0 4.8 0.00 0.00 0.00 53 1015.3
20260507033509 3 83 1.6 4.8 0.00 0.00 0.00 52 1015.4
20260507033007 2 41 0.0 3.2 0.00 0.00 0.00 53 1015.2
20260507032507 2 20 0.0 3.2 0.00 0.00 0.00 54 1015.3
20260507032008 2 147 0.0 1.6 0.00 0.00 0.00 55 1015.3
20260507031008 2 152 0.0 1.6 0.00 0.00 0.00 55 1015.1
20260507030502 2 151 0.0 1.6 0.00 0.00 0.00 53 1015.1
20260507030010 2 104 0.0 3.2 0.00 0.00 0.00 53 1015.0
20260507025001 2 59 0.0 3.2 0.00 0.00 0.00 53 1014.9
20260507024501 2 69 0.0 3.2 0.00 0.00 0.00 56 1015.0
20260507023500 2 78 0.0 3.2 0.00 0.00 0.00 58 1015.0
20260507022930 2 78 0.0 3.2 0.00 0.00 0.00 56 1015.0
20260507022432 2 65 0.0 3.2 0.00 0.00 0.00 56 1015.0
20260507021924 2 73 0.0 1.6 0.00 0.00 0.00 53 1015.1
20260507021425 2 59 0.0 4.8 0.00 0.00 0.00 54 1015.0
20260507020918 2 51 1.6 4.8 0.00 0.00 0.00 52 1015.1
20260507020420 2 65 0.0 6.4 0.00 0.00 0.00 52 1015.1
20260507015922 2 54 1.6 6.4 0.00 0.00 0.00 50 1015.1
20260507015407 2 76 0.0 4.8 0.00 0.00 0.00 49 1015.0
20260507014414 2 63 0.0 4.8 0.00 0.00 0.00 51 1014.9
20260507013908 2 79 0.0 4.8 0.00 0.00 0.00 50 1014.9
20260507013408 2 65 0.0 3.2 0.00 0.00 0.00 49 1014.9
20260507012905 2 61 1.6 3.2 0.00 0.00 0.00 49 1014.9
20260507012404 2 71 0.0 3.2 0.00 0.00 0.00 51 1014.9
20260507011905 2 68 1.6 3.2 0.00 0.00 0.00 50 1014.9
20260507011402 2 82 0.0 3.2 0.00 0.00 0.00 51 1015.0
20260507005904 2 314 0.0 3.2 0.00 0.00 0.00 51 1014.9
20260507003902 2 76 0.0 3.2 0.00 0.00 0.00 52 1014.8
20260507003401 2 92 0.0 3.2 0.00 0.00 0.00 52 1014.8
20260507002902 2 66 0.0 3.2 0.00 0.00 0.00 52 1014.7
20260507002404 2 123 0.0 4.8 0.00 0.00 0.00 51 1014.8
20260507001904 2 83 0.0 4.8 0.00 0.00 0.00 52 1014.8
20260507001404 2 312 0.0 1.6 0.00 0.00 0.00 53 1014.8
20260507000904 2 337 0.0 1.6 0.00 0.00 0.00 52 1014.7
20260507000401 2 337 0.0 0.0 0.00 0.00 0.00 53 1014.8
20260506235859 2 337 0.0 0.0 0.00 0.00 0.00 55 1014.7
20260506235357 2 337 0.0 0.0 0.00 0.00 0.00 56 1014.6
20260506234900 3 337 0.0 0.0 0.00 0.00 0.00 52 1014.8
20260506234333 3 337 0.0 0.0 0.00 0.00 0.00 49 1014.8
20260506233833 3 337 0.0 1.6 0.00 0.00 0.00 49 1014.8
20260506233333 3 337 0.0 1.6 0.00 0.00 0.00 50 1014.8
20260506232830 3 337 0.0 1.6 0.00 0.00 0.00 49 1014.8
20260506232332 3 337 0.0 1.6 0.00 0.00 0.00 48 1014.7
20260506231830 3 334 0.0 1.6 0.00 0.00 0.00 48 1014.6
20260506231332 3 334 0.0 1.6 0.00 0.00 0.00 49 1014.7
20260506230832 3 334 0.0 3.2 0.00 0.00 0.00 48 1014.7
20260506230319 3 327 0.0 1.6 0.00 0.00 0.00 47 1014.7
20260506225244 3 323 0.0 3.2 0.00 0.00 0.00 46 1014.7
20260506224745 3 4 0.0 3.2 0.00 0.00 0.00 47 1014.7
20260506223732 3 0 0.0 1.6 0.00 0.00 0.00 45 1014.7
20260506223233 3 0 0.0 1.6 0.00 0.00 0.00 45 1014.7
20260506222736 4 0 0.0 1.6 0.00 0.00 0.00 46 1014.7
20260506222233 4 0 0.0 1.6 0.00 0.00 0.00 46 1014.6
20260506221729 4 0 0.0 3.2 0.00 0.00 0.00 45 1014.6
20260506221232 4 13 1.6 3.2 0.00 0.00 0.00 44 1014.6
20260506220731 4 343 1.6 3.2 0.00 0.00 0.00 44 1014.5
20260506215709 4 351 1.6 4.8 0.00 0.00 0.00 45 1014.5
20260506215205 4 350 1.6 4.8 0.00 0.00 0.00 45 1014.4
20260506214208 4 347 1.6 3.2 0.00 0.00 0.00 45 1014.4
20260506213205 4 340 1.6 3.2 0.00 0.00 0.00 45 1014.4
20260506212704 4 340 1.6 4.8 0.00 0.00 0.00 44 1014.4
20260506212210 4 343 1.6 4.8 0.00 0.00 0.00 45 1014.3
20260506211704 4 336 1.6 4.8 0.00 0.00 0.00 45 1014.4
20260506211203 4 343 1.6 3.2 0.00 0.00 0.00 46 1014.3
20260506210704 4 347 0.0 4.8 0.00 0.00 0.00 47 1014.3
20260506210207 4 341 1.6 4.8 0.00 0.00 0.00 46 1014.3
20260506205707 4 329 1.6 3.2 0.00 0.00 0.00 47 1014.2
20260506205206 4 314 1.6 1.6 0.00 0.00 0.00 48 1014.2
20260506204706 4 314 1.6 1.6 0.00 0.00 0.00 49 1014.3
20260506204209 4 310 0.0 1.6 0.00 0.00 0.00 47 1014.3
20260506203709 4 302 1.6 1.6 0.00 0.00 0.00 48 1014.2
20260506202711 4 302 1.6 3.2 0.00 0.00 0.00 47 1014.2
20260506202211 4 302 1.6 3.2 0.00 0.00 0.00 47 1014.2
20260506201713 3 283 0.0 3.2 0.00 0.00 0.00 48 1014.2
20260506201219 3 247 1.6 1.6 0.00 0.00 0.00 52 1014.1
20260506200206 4 176 0.0 0.0 0.00 0.00 0.00 54 1014.2
20260506195704 4 176 0.0 0.0 0.00 0.00 0.00 54 1014.2
20260506195203 4 176 0.0 0.0 0.00 0.00 0.00 56 1014.1
20260506194707 4 176 0.0 0.0 0.00 0.00 0.00 54 1014.0
20260506194205 5 176 0.0 0.0 0.00 0.00 0.00 53 1014.1
20260506193712 5 176 0.0 0.0 0.00 0.00 0.00 56 1014.0
20260506193205 5 176 0.0 0.0 0.00 0.00 0.00 55 1013.9
20260506192706 5 176 0.0 0.0 0.00 0.00 0.00 55 1013.9
20260506190648 6 176 0.0 0.0 0.00 0.00 0.00 55 1013.9
20260506190146 6 176 0.0 0.0 0.00 0.00 0.00 56 1013.9
20260506185641 6 176 0.0 0.0 0.00 0.00 0.00 56 1013.9
20260506184642 6 176 0.0 0.0 0.00 0.00 0.00 51 1013.8
20260506183637 6 176 0.0 0.0 0.00 0.00 0.00 58 1013.8
20260506183137 6 176 0.0 0.0 0.00 0.00 0.00 59 1013.8
20260506182632 7 176 0.0 0.0 0.00 0.00 0.00 60 1013.8
20260506182129 7 176 0.0 0.0 0.00 0.00 0.00 61 1013.8
20260506181629 7 176 0.0 0.0 0.00 0.00 0.00 60 1013.7
20260506181120 7 176 0.0 0.0 0.00 0.00 0.00 63 1013.7
20260506180620 7 176 0.0 1.6 0.00 0.00 0.00 61 1013.7
20260506180122 7 176 0.0 1.6 0.00 0.00 0.00 62 1013.7
20260506175615 7 175 0.0 1.6 0.00 0.00 0.00 59 1013.8
20260506175113 8 164 0.0 3.2 0.00 0.00 0.00 59 1013.7
20260506174612 8 164 1.6 3.2 0.00 0.00 0.00 59 1013.6
20260506173610 8 116 0.0 1.6 0.00 0.00 0.00 59 1013.7
20260506173110 8 133 0.0 4.8 0.00 0.00 0.00 58 1013.7
20260506172606 8 118 0.0 4.8 0.00 0.00 0.00 57 1013.6
20260506172108 8 148 1.6 4.8 0.00 0.00 0.00 57 1013.6
20260506171606 8 148 0.0 4.8 0.00 0.00 0.00 56 1013.5
20260506171107 8 197 1.6 4.8 0.00 0.00 0.00 55 1013.5
20260506170601 8 345 1.6 3.2 0.00 0.00 0.00 54 1013.5
20260506170057 8 200 0.0 3.2 0.00 0.00 0.00 55 1013.4
20260506165555 9 94 0.0 4.8 0.00 0.00 0.00 56 1013.3
20260506165055 9 199 0.0 4.8 0.00 0.00 0.00 55 1013.3
20260506164553 9 127 0.0 4.8 0.00 0.00 0.00 55 1013.3
20260506164047 9 113 0.0 4.8 0.00 0.00 0.00 54 1013.3
20260506163549 9 168 1.6 4.8 0.00 0.00 0.00 52 1013.2
20260506163043 9 97 1.6 6.4 0.00 0.00 0.00 51 1013.3
20260506162540 10 135 1.6 6.4 0.00 0.00 0.00 54 1013.3
20260506162039 10 128 1.6 4.8 0.00 0.00 0.00 50 1013.3
20260506161535 10 61 1.6 4.8 0.00 0.00 0.00 52 1013.3
20260506161034 10 140 3.2 4.8 0.00 0.00 0.00 49 1013.2
20260506160532 10 217 1.6 4.8 0.00 0.00 0.00 54 1013.3
20260506160035 10 320 1.6 4.8 0.00 0.00 0.00 54 1013.3
20260506155533 10 224 0.0 6.4 0.00 0.00 0.00 54 1013.3
20260506155029 10 148 3.2 6.4 0.00 0.00 0.00 51 1013.3
20260506154529 10 192 0.0 6.4 0.00 0.00 0.00 53 1013.4
20260506154030 10 223 3.2 6.4 0.00 0.00 0.00 50 1013.3
20260506153529 10 152 1.6 4.8 0.00 0.00 0.00 52 1013.4
20260506153029 10 142 1.6 9.7 0.00 0.00 0.00 50 1013.3
20260506152532 10 135 1.6 9.7 0.00 0.00 0.00 49 1013.3
20260506152018 10 133 1.6 6.4 0.00 0.00 0.00 48 1013.3
20260506151518 10 157 3.2 8.0 0.00 0.00 0.00 47 1013.3
20260506150508 10 147 4.8 9.7 0.00 0.00 0.00 45 1013.4
20260506150016 10 179 1.6 4.8 0.00 0.00 0.00 43 1013.3
20260506145510 10 93 1.6 3.2 0.00 0.00 0.00 45 1013.4
20260506145008 10 254 0.0 3.2 0.00 0.00 0.00 47 1013.5
20260506144504 10 78 1.6 4.8 0.00 0.00 0.00 49 1013.4
20260506144003 10 155 1.6 4.8 0.00 0.00 0.00 49 1013.5
20260506143502 10 206 1.6 3.2 0.00 0.00 0.00 48 1013.4
20260506143004 10 169 1.6 6.4 0.00 0.00 0.00 47 1013.5
20260506142507 10 131 3.2 6.4 0.00 0.00 0.00 49 1013.4
20260506141506 10 118 1.6 8.0 0.00 0.00 0.00 46 1013.4
20260506141000 10 188 3.2 8.0 0.00 0.00 0.00 48 1013.3
20260506140457 10 39 1.6 4.8 0.00 0.00 0.00 45 1013.4
20260506135957 10 116 1.6 3.2 0.00 0.00 0.00 45 1013.4
20260506135458 10 131 1.6 4.8 0.00 0.00 0.00 45 1013.4
20260506134932 10 317 1.6 4.8 0.00 0.00 0.00 46 1013.4
20260506134437 10 186 1.6 3.2 0.00 0.00 0.00 46 1013.4
20260506133936 10 171 0.0 3.2 0.00 0.00 0.00 43 1013.5
20260506133436 10 264 0.0 1.6 0.00 0.00 0.00 39 1013.6
20260506132929 10 269 0.0 4.8 0.00 0.00 0.00 37 1013.5
20260506132435 10 7 3.2 4.8 0.00 0.00 0.00 36 1013.4
20260506131928 10 197 0.0 3.2 0.00 0.00 0.00 35 1013.4
20260506131409 11 310 1.6 6.4 0.00 0.00 0.00 35 1013.3
20260506130907 11 207 3.2 6.4 0.00 0.00 0.00 33 1013.2
20260506130405 10 172 1.6 9.7 0.00 0.00 0.00 33 1013.3
20260506125903 10 293 1.6 9.7 0.00 0.00 0.00 32 1013.2
20260506125408 10 319 3.2 9.7 0.00 0.00 0.00 32 1013.2
20260506124901 11 341 4.8 9.7 0.00 0.00 0.00 32 1013.3
20260506123902 11 347 1.6 6.4 0.00 0.00 0.00 32 1013.3
20260506122910 11 283 3.2 8.0 0.00 0.00 0.00 31 1013.3
20260506122413 11 326 3.2 8.0 0.00 0.00 0.00 30 1013.2
20260506121904 11 227 3.2 8.0 0.00 0.00 0.00 32 1013.2
20260506120907 11 288 3.2 6.4 0.00 0.00 0.00 33 1013.3
20260506120408 11 285 3.2 6.4 0.00 0.00 0.00 32 1013.3
20260506115904 11 333 4.8 8.0 0.00 0.00 0.00 31 1013.3
20260506115408 11 255 3.2 9.7 0.00 0.00 0.00 32 1013.2
20260506114906 11 324 3.2 9.7 0.00 0.00 0.00 31 1013.3
20260506114405 11 199 4.8 8.0 0.00 0.00 0.00 31 1013.3
20260506113404 11 313 1.6 4.8 0.00 0.00 0.00 33 1013.3
20260506112903 11 319 1.6 3.2 0.00 0.00 0.00 35 1013.2
20260506112404 10 90 1.6 3.2 0.00 0.00 0.00 35 1013.3
20260506111902 10 340 0.0 4.8 0.00 0.00 0.00 37 1013.4
20260506111408 10 223 0.0 4.8 0.00 0.00 0.00 36 1013.4
20260506110907 10 292 1.6 4.8 0.00 0.00 0.00 34 1013.5
20260506110406 10 248 1.6 4.8 0.00 0.00 0.00 33 1013.4
20260506105905 10 314 1.6 14.5 0.00 0.00 0.00 32 1013.3
20260506104906 11 353 6.4 9.7 0.00 0.00 0.00 30 1013.3
20260506103905 10 350 1.6 17.7 0.00 0.00 0.00 31 1013.3
20260506102906 11 331 6.4 11.3 0.00 0.00 0.00 32 1013.2
20260506102404 11 343 3.2 6.4 0.00 0.00 0.00 32 1013.1
20260506101903 11 350 3.2 8.0 0.00 0.00 0.00 32 1013.1
20260506100906 10 164 3.2 9.7 0.00 0.00 0.00 33 1013.2
20260506100404 10 323 3.2 9.7 0.00 0.00 0.00 32 1013.2
20260506095901 10 7 1.6 6.4 0.00 0.00 0.00 35 1013.2
20260506094903 10 0 3.2 9.7 0.00 0.00 0.00 34 1013.2
20260506094407 10 295 3.2 8.0 0.00 0.00 0.00 36 1013.0
20260506093902 10 0 4.8 8.0 0.00 0.00 0.00 35 1013.1
20260506092909 10 310 3.2 14.5 0.00 0.00 0.00 33 1013.1
20260506092404 11 21 4.8 8.0 0.00 0.00 0.00 33 1012.8
20260506091406 10 56 3.2 9.7 0.00 0.00 0.00 35 1012.8
20260506090903 10 336 1.6 9.7 0.00 0.00 0.00 35 1012.9
20260506090407 10 316 3.2 9.7 0.00 0.00 0.00 36 1012.9
20260506085404 10 306 4.8 9.7 0.00 0.00 0.00 36 1012.9
20260506084406 10 0 3.2 9.7 0.00 0.00 0.00 38 1012.8
20260506083903 10 306 1.6 9.7 0.00 0.00 0.00 38 1012.7
20260506083405 10 300 1.6 6.4 0.00 0.00 0.00 40 1012.8
20260506082906 10 235 3.2 6.4 0.00 0.00 0.00 38 1012.9
20260506082407 10 337 3.2 8.0 0.00 0.00 0.00 37 1012.9
20260506081903 10 316 4.8 14.5 0.00 0.00 0.00 37 1012.8
20260506081403 10 283 6.4 14.5 0.00 0.00 0.00 37 1012.7
20260506080904 9 340 1.6 9.7 0.00 0.00 0.00 40 1012.7
20260506080406 9 347 4.8 9.7 0.00 0.00 0.00 38 1012.7
20260506073407 9 282 1.6 9.7 0.00 0.00 0.00 43 1012.5
20260506072903 9 100 3.2 8.0 0.00 0.00 0.00 45 1012.5
20260506072407 9 319 3.2 11.3 0.00 0.00 0.00 44 1012.5
20260506071909 9 4 4.8 11.3 0.00 0.00 0.00 43 1012.5
20260506071404 9 264 3.2 6.4 0.00 0.00 0.00 47 1012.4
20260506070903 9 196 3.2 6.4 0.00 0.00 0.00 47 1012.4
20260506070404 8 324 1.6 8.0 0.00 0.00 0.00 48 1012.3